world map with SDK marked

SDK - Airport

This information may not be accurate or current and is not valid for navigation or flight planning. No warranty of fitness for any purpose is made or implied.

flag of Sabahflag of Malaysia

Donate via PayPal

Additional information is available on the NEW Great Circle Mapper

Location
City:  Sandakan, Sabah, Malaysia
ICAO / IATA:WBKS / SDK

Details
Type:Airport (Aerodrome, Airfield)
Use:Public/Civil
Latitude:5°54'03"N (5.900897)
Longitude:118°03'34"E (118.059486)
Datum:WGS 1984
Elevation:46 ft (14 m)
Runways:1
Longest:7000 × 151 ft (2134 × 46 m)

Time
Timezone:UTC+8 (DST+10)
Local Time:

Weather
METAR:WBKS  180400Z 04012KT 010V070 9999 FEW010 SCT015 BKN280 30/25 Q1010
TAF:WBKS  180500Z 1806/1906 04012KT 9999 FEW015 BECMG 1818/1820 05005KT

Related Locations
Nearby:
Farthest:MNX: 12405 mi / 19963 km
Manicoré, AM, BR

Find:

   beyond  
but within

Other Information
Maps:
Sources:

  


 


Great Circle Mapper   Great Circle Mapper
Great Circle Mapper FAQ   Great Circle Mapper FAQ
  Karl's Home Page
KLS˛   KLS˛ Home
   GC on Facebook
Airlines of the World   Airlines of the World
Donate via PayPal


Copyright © 2004-2019, Karl L. Swartz. All rights reserved.
All trademarks mentioned herein belong to their respective owners.

Please see credits for attribution and copyright information.

Karl Swartz <karl@kls2.com>
  Powered by FreeBSD
Valid HTML 4.01!
Labeled with ICRA
hCard Microformat
Geo Microformat